This is the latest recevied weather packets stored in our database for station/object K1WJY. If no packets are shown the sender has not sent any weather packets the latest 10 day(s).
| Time | Temp. | Humidity | Pressure | Rain* | Wind** | Luminosity | Snow |
|---|---|---|---|---|---|---|---|
| 1787829621 | 14.44° C | 99% | 1021.5 hPa | 0 mm | - | 71 W/m² | - |
| 1787829317 | 13.89° C | 99% | 1021.6 hPa | 0 mm | - | 55 W/m² | - |
| 1787829012 | 13.89° C | 99% | 1021.5 hPa | 0 mm | - | 47 W/m² | - |
| 1787828708 | 13.33° C | 99% | 1021.5 hPa | 0 mm | - | 39 W/m² | - |
| 1787828403 | 12.22° C | 99% | 1021.4 hPa | 0 mm | - | 52 W/m² | - |
| 1787828102 | 12.22° C | 99% | 1021.5 hPa | 0 mm | - | 39 W/m² | - |
| 1787827802 | 11.67° C | 99% | 1021.3 hPa | 0 mm | - | 35 W/m² | - |
| 1787827497 | 11.67° C | 99% | 1021.3 hPa | 0 mm | - | 29 W/m² | - |
| 1787827197 | 11.67° C | 99% | 1021.2 hPa | 0 mm | - | 24 W/m² | - |
| 1787826897 | 11.67° C | 99% | 1021.4 hPa | 0 mm | - | 19 W/m² | - |
| 1787826592 | 11.67° C | 99% | 1021.1 hPa | 0 mm | - | 13 W/m² | - |
| 1787825086 | 11.11° C | 99% | 1020.8 hPa | 0 mm | - | 3 W/m² | - |
| 1787824782 | 11.11° C | 99% | 1021 hPa | 0 mm | - | 3 W/m² | - |
| 1787824478 | 11.11° C | 99% | 1021.1 hPa | 0 mm | - | 2 W/m² | - |
| 1787824177 | 11.11° C | 99% | 1020.8 hPa | 0 mm | - | 2 W/m² | - |
| 1787823874 | 11.11° C | 99% | 1020.9 hPa | 0 mm | - | 0 W/m² | - |
| 1787823573 | 11.67° C | 99% | 1020.7 hPa | 0 mm | - | 0 W/m² | - |
| 1787823269 | 11.11° C | 99% | 1020.9 hPa | 0 mm | - | 0 W/m² | - |
| 1787822968 | 11.11° C | 99% | 1020.9 hPa | 0 mm | - | 0 W/m² | - |
| 1787822668 | 11.11° C | 99% | 1020.8 hPa | 0 mm | - | 0 W/m² | - |
| 1787822362 | 11.11° C | 99% | 1020.8 hPa | 0 mm | - | 0 W/m² | - |
| 1787817197 | 12.22° C | 99% | 1020.9 hPa | 0 mm | - | 0 W/m² | - |
| 1787816896 | 12.22° C | 99% | 1020.7 hPa | 0 mm | - | 0 W/m² | - |
| 1787816592 | 12.22° C | 99% | 1020.8 hPa | 0 mm | - | 0 W/m² | - |
| 1787816287 | 12.22° C | 99% | 1020.8 hPa | 0 mm | - | 0 W/m² | - |
* Rain latest hour (hover to see other rain measurements)
** Current wind speed in m/s (hover to see current wind gust speed)